timestamp,surface_pressure_avg,surface_temp_avg,battery_voltage,lat,long
2021-12-18 00:09:00+00:00,332.9096,4.1,12.57,47.84626,-54.09684
2021-12-18 00:19:00+00:00,339.983,4.1,12.57,47.84626,-54.09684
2021-12-18 00:29:00+00:00,330.7029,4.04,12.57,47.84626,-54.09684
2021-12-18 00:39:00+00:00,312.9663,4.15,12.57,47.84626,-54.09684
2021-12-18 00:49:00+00:00,315.6014,4.2,12.57,47.84626,-54.09684
2021-12-18 00:59:00+00:00,318.7863,4.19,12.57,47.84626,-54.09684
2021-12-18 01:09:00+00:00,301.473,4.2,12.57,47.84626,-54.09684
2021-12-18 01:19:01+00:00,289.5331,4.2,12.57,47.84626,-54.09684
2021-12-18 01:29:01+00:00,296.1331,4.2,12.57,47.84626,-54.09684
2021-12-18 01:39:01+00:00,297.4847,4.2,12.57,47.84626,-54.09684
2021-12-18 01:49:01+00:00,279.2114,4.2,12.57,47.84626,-54.09684
2021-12-18 01:59:01+00:00,273.3231,4.23,12.57,47.84626,-54.09684
2021-12-18 02:09:01+00:00,275.3765,4.21,12.57,47.84626,-54.09684
2021-12-18 02:19:00+00:00,258.7047,4.24,12.49,47.84626,-54.09684
2021-12-18 02:29:00+00:00,238.9314,4.22,12.49,47.84626,-54.09684
2021-12-18 02:39:00+00:00,243.8931,4.23,12.49,47.84626,-54.09684
2021-12-18 02:49:00+00:00,245.0114,4.25,12.49,47.84626,-54.09684
2021-12-18 02:59:00+00:00,229.9747,4.2,12.49,47.84626,-54.09684
2021-12-18 03:09:00+00:00,218.3881,4.1,12.49,47.84626,-54.09684
2021-12-18 03:19:00+00:00,221.1914,4.1,12.49,47.84626,-54.09684
2021-12-18 03:29:00+00:00,220.8814,4.17,12.49,47.84626,-54.09684
2021-12-18 03:39:00+00:00,211.9564,4.2,12.49,47.84626,-54.09684
2021-12-18 03:49:00+00:00,205.2715,4.2,12.49,47.84626,-54.09684
2021-12-18 03:59:00+00:00,202.3665,4.19,12.49,47.84626,-54.09684
2021-12-18 04:09:00+00:00,200.9281,4.2,12.49,47.84626,-54.09684
2021-12-18 04:19:01+00:00,199.0598,4.2,12.49,47.84626,-54.09684
2021-12-18 04:29:01+00:00,196.7781,4.2,12.49,47.84626,-54.09684
2021-12-18 04:39:01+00:00,195.9448,4.25,12.49,47.84626,-54.09684
2021-12-18 04:49:01+00:00,199.4731,4.28,12.49,47.84626,-54.09684
2021-12-18 04:59:01+00:00,204.9248,4.3,12.49,47.84626,-54.09684
2021-12-18 05:09:01+00:00,202.1915,4.3,12.49,47.84626,-54.09684
2021-12-18 05:19:00+00:00,198.8648,4.3,12.49,47.84626,-54.09684
2021-12-18 05:29:00+00:00,205.4281,4.33,12.49,47.84626,-54.09684
2021-12-18 05:39:00+00:00,208.7032,4.4,12.49,47.84626,-54.09684
2021-12-18 05:49:00+00:00,207.9615,4.4,12.49,47.84626,-54.09684
2021-12-18 05:59:00+00:00,210.9464,4.49,12.49,47.84626,-54.09684
2021-12-18 06:09:00+00:00,211.2998,4.5,12.49,47.84626,-54.09684
2021-12-18 06:19:00+00:00,211.2214,4.5,12.49,47.84626,-54.09684
2021-12-18 06:29:00+00:00,214.6564,4.5,12.49,47.84626,-54.09684
2021-12-18 06:39:00+00:00,214.8081,4.5,12.49,47.84626,-54.09684
2021-12-18 06:49:00+00:00,217.8264,4.5,12.49,47.84626,-54.09684
2021-12-18 06:59:00+00:00,221.5348,4.51,12.49,47.84626,-54.09684
2021-12-18 07:09:00+00:00,224.3981,4.54,12.49,47.84626,-54.09684
2021-12-18 07:19:00+00:00,227.4164,4.55,12.49,47.84626,-54.09684
2021-12-18 07:29:00+00:00,230.3098,4.57,12.49,47.84626,-54.09684
2021-12-18 07:39:00+00:00,238.9364,4.58,12.49,47.84626,-54.09684
2021-12-18 07:49:00+00:00,247.1331,4.59,12.49,47.84626,-54.09684
2021-12-18 07:59:00+00:00,251.7497,4.6,12.49,47.84626,-54.09684
2021-12-18 08:09:00+00:00,255.0098,4.6,12.49,47.84626,-54.09684
2021-12-18 08:19:00+00:00,265.0814,4.6,12.49,47.84626,-54.09684
2021-12-18 08:29:00+00:00,270.1381,4.6,12.49,47.84626,-54.09684
2021-12-18 08:39:00+00:00,272.2164,4.6,12.49,47.84626,-54.09684
2021-12-18 08:49:00+00:00,279.4647,4.6,12.49,47.84626,-54.09684
2021-12-18 08:59:00+00:00,292.2313,4.6,12.49,47.84626,-54.09684
2021-12-18 09:09:00+00:00,297.6564,4.6,12.49,47.84626,-54.09684
2021-12-18 09:19:00+00:00,302.5813,4.6,12.41,47.84626,-54.09684
2021-12-18 09:29:00+00:00,308.5747,4.6,12.41,47.84626,-54.09684
2021-12-18 09:39:00+00:00,315.8664,4.58,12.41,47.84626,-54.09684
2021-12-18 09:49:00+00:00,320.2063,4.59,12.41,47.84626,-54.09684
2021-12-18 09:59:00+00:00,327.7646,4.64,12.41,47.84626,-54.09684
2021-12-18 10:09:00+00:00,328.603,4.71,12.41,47.84626,-54.09684
2021-12-18 10:19:00+00:00,333.1647,4.8,12.41,47.84626,-54.09684
2021-12-18 10:29:00+00:00,336.7097,4.85,12.41,47.84626,-54.09684
2021-12-18 10:39:00+00:00,341.528,4.9,12.41,47.84626,-54.09684
2021-12-18 10:49:00+00:00,350.0912,4.9,12.41,47.84626,-54.09684
2021-12-18 10:59:00+00:00,356.5547,4.9,12.41,47.84626,-54.09684
2021-12-18 11:09:00+00:00,362.1879,4.89,12.41,47.84626,-54.09684
2021-12-18 11:19:00+00:00,362.4479,4.9,12.41,47.84626,-54.09684
2021-12-18 11:29:00+00:00,363.8945,4.9,12.41,47.84626,-54.09684
2021-12-18 11:39:00+00:00,364.2712,4.9,12.41,47.84626,-54.09684
2021-12-18 11:49:00+00:00,362.7346,4.9,12.41,47.84626,-54.09684
2021-12-18 11:59:00+00:00,362.0563,4.9,12.41,47.84626,-54.09684
2021-12-18 12:09:00+00:00,357.8596,4.9,12.41,47.84626,-54.09684
2021-12-18 12:19:00+00:00,350.5663,4.9,12.41,47.84626,-54.09684
2021-12-18 12:29:00+00:00,345.9946,4.9,12.41,47.84626,-54.09684
2021-12-18 12:39:00+00:00,344.5846,4.9,12.41,47.84626,-54.09684
2021-12-18 12:49:00+00:00,336.9346,4.9,12.41,47.84626,-54.09684
2021-12-18 12:59:00+00:00,329.023,4.9,12.41,47.84626,-54.09684
2021-12-18 13:09:00+00:00,327.5312,4.88,12.41,47.84626,-54.09684
2021-12-18 13:19:00+00:00,320.818,4.85,12.49,47.84626,-54.09684
2021-12-18 13:29:00+00:00,310.553,4.8,12.49,47.84626,-54.09684
2021-12-18 13:39:00+00:00,306.718,4.8,12.49,47.84626,-54.09684
2021-12-18 13:49:00+00:00,305.5714,4.8,12.49,47.84626,-54.09684
2021-12-18 13:59:00+00:00,296.5114,4.8,12.49,47.84626,-54.09684
2021-12-18 14:09:00+00:00,289.7164,4.79,12.49,47.84626,-54.09684
2021-12-18 14:19:00+00:00,290.0247,4.78,12.57,47.84626,-54.09684
2021-12-18 14:29:00+00:00,287.7014,4.78,12.57,47.84626,-54.09684
2021-12-18 14:39:00+00:00,278.243,4.7,12.57,47.84626,-54.09684
2021-12-18 14:49:00+00:00,274.4747,4.7,12.57,47.84626,-54.09684
2021-12-18 14:59:00+00:00,275.9264,4.7,12.57,47.84626,-54.09684
2021-12-18 15:09:00+00:00,270.7181,4.7,12.57,47.84626,-54.09684
2021-12-18 15:19:00+00:00,260.9714,4.7,12.89,47.84626,-54.09684
2021-12-18 15:29:00+00:00,258.3398,4.7,12.89,47.84626,-54.09684
2021-12-18 15:39:00+00:00,252.6181,4.7,12.89,47.84626,-54.09684
2021-12-18 15:49:00+00:00,239.3365,4.7,12.89,47.84626,-54.09684
2021-12-18 15:59:00+00:00,235.4181,4.7,12.89,47.84626,-54.09684
2021-12-18 16:09:00+00:00,236.9364,4.7,12.89,47.84626,-54.09684
2021-12-18 16:19:00+00:00,230.1981,4.7,12.81,47.84626,-54.09684
2021-12-18 16:29:00+00:00,223.0414,4.7,12.81,47.84626,-54.09684
2021-12-18 16:39:00+00:00,223.8431,4.7,12.81,47.84626,-54.09684
2021-12-18 16:49:00+00:00,222.8014,4.7,12.81,47.84626,-54.09684
2021-12-18 16:59:00+00:00,216.1231,4.7,12.81,47.84626,-54.09684
2021-12-18 17:09:00+00:00,213.9215,4.7,12.81,47.84626,-54.09684
2021-12-18 17:19:00+00:00,217.5481,4.7,12.73,47.84626,-54.09684
2021-12-18 17:29:00+00:00,218.8481,4.7,12.73,47.84626,-54.09684
2021-12-18 17:39:00+00:00,213.4981,4.7,12.73,47.84626,-54.09684
2021-12-18 17:49:00+00:00,211.6198,4.7,12.73,47.84626,-54.09684
2021-12-18 17:59:00+00:00,214.8298,4.7,12.73,47.84626,-54.09684
2021-12-18 18:09:00+00:00,215.3198,4.7,12.73,47.84626,-54.09684
2021-12-18 18:19:00+00:00,215.0414,4.7,12.65,47.84626,-54.09684
2021-12-18 18:29:00+00:00,217.8481,4.7,12.65,47.84626,-54.09684
2021-12-18 18:39:00+00:00,220.3997,4.7,12.65,47.84626,-54.09684
2021-12-18 18:49:00+00:00,222.7631,4.7,12.65,47.84626,-54.09684
2021-12-18 18:59:00+00:00,225.8097,4.7,12.65,47.84626,-54.09684
2021-12-18 19:09:00+00:00,227.9265,4.7,12.65,47.84626,-54.09684
2021-12-18 19:19:00+00:00,232.9781,4.7,12.65,47.84626,-54.09684
2021-12-18 19:29:00+00:00,237.1065,4.7,12.65,47.84626,-54.09684
2021-12-18 19:39:00+00:00,237.2448,4.7,12.65,47.84626,-54.09684
2021-12-18 19:49:00+00:00,242.9131,4.7,12.65,47.84626,-54.09684
2021-12-18 19:59:00+00:00,253.1531,4.7,12.65,47.84626,-54.09684
2021-12-18 20:09:00+00:00,259.3614,4.7,12.65,47.84626,-54.09684
2021-12-18 20:19:01+00:00,261.4097,4.7,12.57,47.84626,-54.09684
2021-12-18 20:29:01+00:00,271.5631,4.7,12.57,47.84626,-54.09684
2021-12-18 20:39:01+00:00,281.9914,4.6,12.57,47.84626,-54.09684
2021-12-18 20:49:01+00:00,288.6464,4.6,12.57,47.84626,-54.09684
2021-12-18 20:59:01+00:00,292.5881,4.6,12.57,47.84626,-54.09684
2021-12-18 21:09:01+00:00,299.2247,4.6,12.57,47.84626,-54.09684
2021-12-18 21:19:01+00:00,303.683,4.6,12.49,47.84626,-54.09684
2021-12-18 21:29:01+00:00,311.5146,4.6,12.49,47.84626,-54.09684
2021-12-18 21:39:01+00:00,319.3064,4.58,12.49,47.84626,-54.09684
2021-12-18 21:49:01+00:00,326.103,4.52,12.49,47.84626,-54.09684
2021-12-18 21:59:01+00:00,330.9430000000001,4.53,12.49,47.84626,-54.09684
2021-12-18 22:09:01+00:00,335.8362,4.54,12.49,47.84626,-54.09684
2021-12-18 22:19:00+00:00,343.5147,4.53,12.41,47.84626,-54.09684
2021-12-18 22:29:00+00:00,346.20300000000015,4.5,12.41,47.84626,-54.09684
2021-12-18 22:39:00+00:00,345.9547,4.5,12.41,47.84626,-54.09684
2021-12-18 22:49:00+00:00,349.0646,4.5,12.41,47.84626,-54.09684
2021-12-18 22:59:00+00:00,353.8046,4.5,12.41,47.84626,-54.09684
2021-12-18 23:09:00+00:00,354.5863,4.5,12.41,47.84626,-54.09684
2021-12-18 23:19:00+00:00,351.9479,4.5,12.41,47.84626,-54.09684
2021-12-18 23:29:00+00:00,355.3863,4.5,12.41,47.84626,-54.09684
2021-12-18 23:39:00+00:00,362.1946,4.5,12.41,47.84626,-54.09684
2021-12-18 23:49:00+00:00,362.7679,4.5,12.41,47.84626,-54.09684
2021-12-18 23:59:00+00:00,355.1029,4.5,12.41,47.84626,-54.09684
